DW6451 Weather Reports


Display with metric or nautical units.
time (UTC)temp
F
wind
direction
speed
MPH
gust
MPH
rain 1hr
in
rain 24hr
in
rain mn
in
humidity
%
barometer
mb
20260906090101 59 94 0.0 0.0 0.00 0.02 0.00 97 1018.1
20260906084549 60 94 0.0 0.0 0.00 0.04 0.00 97 1018.0
20260906083047 60 94 0.0 0.0 0.00 0.04 0.00 97 1018.0
20260906081547 60 94 0.0 0.0 0.00 0.04 0.00 96 1017.9
20260906080044 60 94 0.0 0.0 0.00 0.04 0.00 96 1017.8
20260906074543 61 94 0.0 0.0 0.00 0.04 0.00 96 1017.7
20260906073056 61 94 0.0 0.0 0.00 0.04 0.00 96 1017.9
20260906071540 61 94 0.0 0.0 0.00 0.04 0.00 96 1018.0
20260906070041 62 94 0.0 0.0 0.00 0.04 0.00 95 1018.0
20260906064538 62 94 0.0 0.0 0.00 0.05 0.00 95 1018.1
20260906063046 62 94 0.0 0.0 0.00 0.05 0.00 95 1017.9
20260906061535 62 94 0.0 0.0 0.00 0.05 0.00 95 1018.0
20260906060032 63 94 0.0 0.0 0.00 0.05 0.00 95 1017.9
20260906054529 63 94 0.0 0.0 0.00 0.05 0.00 94 1017.7
20260906053028 64 94 0.0 0.0 0.00 0.05 0.00 94 1017.6
20260906051545 65 94 0.0 0.0 0.00 0.05 0.00 94 1017.5
20260906050024 65 94 0.0 0.0 0.00 0.05 0.00 94 1017.5
20260906044523 65 94 0.0 1.0 0.00 0.05 0.05 94 1017.5
20260906043023 65 94 0.0 0.0 0.00 0.05 0.05 94 1017.6
20260906041522 65 94 0.0 0.0 0.01 0.05 0.05 95 1017.5
20260906040032 65 94 0.0 1.0 0.01 0.05 0.05 95 1017.2
20260906034526 65 94 0.0 1.0 0.01 0.05 0.05 95 1017.2
20260906033021 65 94 0.0 1.0 0.01 0.05 0.05 95 1017.2
20260906031520 65 94 0.0 1.0 0.00 0.04 0.04 95 1017.1
20260906030019 65 94 0.0 1.0 0.00 0.04 0.04 95 1017.1
20260906024520 65 94 0.0 1.0 0.00 0.04 0.04 95 1016.8
20260906023018 65 94 0.0 2.0 0.00 0.04 0.04 95 1017.0
20260906021518 65 94 0.0 0.0 0.00 0.04 0.04 94 1016.8
20260906020020 65 94 0.0 0.0 0.00 0.04 0.04 94 1016.9
20260906014526 65 94 0.0 0.0 0.00 0.04 0.04 92 1016.7
20260906013017 65 94 0.0 0.0 0.00 0.04 0.04 91 1016.8
20260906011516 66 94 0.0 0.0 0.00 0.04 0.04 90 1016.5
20260906010015 66 94 0.0 0.0 0.00 0.04 0.04 89 1016.6
20260906004515 67 94 0.0 1.0 0.00 0.04 0.04 88 1016.5
20260906003015 67 94 0.0 0.0 0.00 0.04 0.04 87 1016.6
20260906001514 68 94 0.0 1.0 0.00 0.04 0.04 86 1016.9
20260906000013 69 94 0.0 1.0 0.00 0.04 0.04 84 1016.9
20260905234513 69 94 0.0 2.0 0.00 0.04 0.04 82 1016.8
20260905233012 70 96 0.0 2.0 0.00 0.04 0.04 80 1016.8
20260905231521 71 99 0.0 5.0 0.00 0.04 0.04 79 1016.5
20260905230019 72 61 1.0 5.0 0.00 0.04 0.04 78 1016.7
20260905224511 72 144 0.0 4.0 0.00 0.04 0.04 76 1016.8
20260905223011 73 82 1.0 5.0 0.00 0.04 0.04 73 1016.7
20260905221510 74 93 0.0 7.0 0.00 0.04 0.04 72 1016.6
20260905220009 74 65 1.0 6.0 0.00 0.04 0.04 73 1016.8
20260905214509 74 84 1.0 5.0 0.00 0.04 0.04 72 1016.8
20260905213008 75 23 0.0 8.0 0.00 0.04 0.04 74 1016.7
20260905211506 74 17 0.0 4.0 0.00 0.04 0.04 77 1016.8
20260905210003 73 11 1.0 3.0 0.00 0.04 0.04 76 1017.1
20260905204501 73 5 0.0 2.0 0.00 0.04 0.04 78 1017.1
20260905203111 72 5 1.0 6.0 0.00 0.04 0.04 81 1017.2
20260905201558 72 81 0.0 5.0 0.00 0.04 0.04 83 1017.5
20260905200105 72 340 1.0 4.0 0.00 0.04 0.04 82 1017.5
20260905194558 72 309 1.0 4.0 0.00 0.04 0.04 83 1017.5
20260905193056 72 313 0.0 4.0 0.00 0.04 0.04 83 1017.4
20260905191554 72 39 1.0 4.0 0.00 0.04 0.04 85 1017.4
20260905190053 71 42 0.0 4.0 0.00 0.04 0.04 86 1017.2
20260905184550 71 41 0.0 4.0 0.00 0.04 0.04 89 1017.4
20260905183046 70 37 0.0 3.0 0.00 0.04 0.04 91 1017.3
20260905181545 69 37 0.0 3.0 0.00 0.04 0.04 92 1017.5
20260905180045 69 37 0.0 2.0 0.00 0.04 0.04 93 1017.6
20260905174547 69 37 0.0 2.0 0.00 0.04 0.04 94 1017.6
20260905173045 69 37 0.0 1.0 0.00 0.04 0.04 93 1017.6
20260905171556 69 37 0.0 3.0 0.00 0.04 0.04 93 1017.9
20260905170046 69 40 0.0 2.0 0.00 0.04 0.04 93 1017.8
20260905164547 69 40 0.0 3.0 0.00 0.04 0.04 93 1017.9
20260905163050 69 40 0.0 2.0 0.00 0.04 0.04 93 1017.9
20260905161541 69 40 0.0 3.0 0.00 0.04 0.04 94 1017.7
20260905160039 70 40 0.0 2.0 0.00 0.04 0.04 96 1017.5
20260905154545 69 40 0.0 2.0 0.00 0.04 0.04 99 1017.4
20260905153034 68 40 0.0 3.0 0.00 0.04 0.04 100 1017.4
20260905151533 68 40 0.0 1.0 0.00 0.04 0.04 100 1017.5
20260905150040 67 40 0.0 1.0 0.00 0.04 0.04 100 1017.5
20260905144535 67 40 0.0 2.0 0.00 0.04 0.04 100 1017.4
20260905143028 67 40 0.0 2.0 0.00 0.04 0.04 100 1017.3
20260905141527 67 40 0.0 1.0 0.00 0.04 0.04 100 1017.0
20260905140028 67 40 0.0 2.0 0.00 0.04 0.04 100 1016.8
20260905134526 67 40 0.0 0.0 0.00 0.04 0.04 100 1017.0
20260905133024 66 40 0.0 0.0 0.00 0.04 0.04 100 1017.1
20260905131533 66 40 0.0 1.0 0.00 0.04 0.04 100 1017.1
20260905130021 66 40 0.0 0.0 0.00 0.04 0.04 100 1017.1
20260905124519 66 40 0.0 0.0 0.00 0.04 0.04 100 1016.6
20260905123019 66 40 0.0 0.0 0.00 0.04 0.04 100 1016.5
20260905121514 66 40 0.0 1.0 0.00 0.04 0.04 100 1016.1
20260905120021 65 40 0.0 0.0 0.00 0.04 0.04 100 1016.0
20260905114516 65 40 0.0 0.0 0.00 0.04 0.04 100 1015.8
20260905113011 65 40 0.0 0.0 0.01 0.04 0.04 100 1015.4
20260905111510 65 40 0.0 3.0 0.01 0.04 0.04 100 1015.4
20260905110010 65 40 0.0 2.0 0.01 0.04 0.04 100 1015.2
20260905104517 65 40 0.0 1.0 0.01 0.04 0.04 100 1015.3
20260905103012 65 40 0.0 3.0 0.00 0.03 0.03 100 1015.5
20260905101509 65 40 0.0 3.0 0.00 0.03 0.03 100 1015.6
20260905100008 65 40 0.0 4.0 0.00 0.03 0.03 100 1015.6
20260905094508 65 40 0.0 3.0 0.01 0.50 0.03 100 1015.5
20260905093008 65 41 0.0 3.0 0.02 0.50 0.03 100 1015.5
20260905091507 65 35 0.0 3.0 0.02 0.50 0.03 100 1015.8